Location: Paris
(48.6709°N, 2.3750°E)
Time: 06:40:22
(UTC+02:00)

ZACube-1 - Pass Details

Date: 03 July 2022
Orbit: 582 x 661 km, 97.6° (Epoch: 09 August)

Event Time Altitude Azimuth Distance (km) Brightness Sun altitude
Rises 04:46:24 0° 25° (NNE) 2,957 ? -8.8°
Reaches altitude 10° 04:49:05 10° 42° (NE) 2,055 ? -8.5°
Maximum altitude 04:52:30 21° 92° (E) 1,464 ? -8.1°
Drops below altitude 10° 04:55:55 10° 141° (SE) 2,067 ? -7.7°
Sets 04:58:37 0° 157° (SSE) 2,979 ? -7.4°
